Regional Weather Roundup
Issued by NWS

Home | Current Version | Previous Version | Text Only | Print | Product List | Glossary Off
Versions: 1 2 3 4 5 6 7 8 9 10 11 12 13 14 15 16 17 18 19 20 21 22 23 24 25 26 27 28 29 30 31 32 33 34 35 36 37 38 39 40 41 42 43 44 45 46 47 48 49 50

000
ASUS43 KLSX 190607
RWRMO

WEATHER SUMMARY FOR MISSOURI
NATIONAL WEATHER SERVICE SPRINGFIELD MO
1200 AM CST FRI JAN 19 2018

NOTE: "FAIR" INDICATES FEW OR NO CLOUDS BELOW 12,000 FEET WITH NO
       SIGNIFICANT WEATHER AND/OR OBSTRUCTIONS TO VISIBILITY.
       CURRENT SKY AND/OR WEATHER CONDITIONS ARE NOT AVAILABLE FOR
       CHILLICOTHE AND FARMINGTON.

MOZ001>031-035>038-043-044-053-054-190700-
...NORTHERN AND WESTERN MISSOURI...

CITY           SKY/WX    TMP DP  RH WIND       PRES   REMARKS
KANSAS CTY INT CLOUDY    37  20  50 SW22      30.00F WCI  26
6HR MIN TEMP:  34; 6HR MAX TEMP:  37;

KANSAS C DTWN  CLOUDY    37  19  48 S7        30.02F
6HR MIN TEMP:  36; 6HR MAX TEMP:  39;

LEE`S SUMMIT   CLOUDY    35  19  52 SW16      30.03F WCI  25
6HR MIN TEMP:  33; 6HR MAX TEMP:  35;

ST JOSEPH      CLOUDY    36  25  64 S12       29.98F WCI  28
6HR MIN TEMP:  31; 6HR MAX TEMP:  36;

CHILLICOTHE      N/A     31  20  63 S6        30.02F WCI  25
6HR MIN TEMP:  30; 6HR MAX TEMP:  35;

KIRKSVILLE     CLOUDY    32  22  66 SW14      30.00F WCI  22
6HR MIN TEMP:  32; 6HR MAX TEMP:  34;


$$
MOZ066>068-077>081-088>096-101>105-190700-
...SOUTHWEST MISSOURI...

CITY           SKY/WX    TMP DP  RH WIND       PRES   REMARKS
SPRINGFIELD    CLOUDY    27  12  53 S12       30.15F WCI  17
6HR MIN TEMP:  27; 6HR MAX TEMP:  37;

JOPLIN         CLOUDY    34  15  46 S17G29    30.15F WCI  23
6HR MIN TEMP:  33; 6HR MAX TEMP:  37;


$$
MOZ032>034-039>042-045>050-055>058-069>072-190700-
...CENTRAL MISSOURI...

CITY           SKY/WX    TMP DP  RH WIND       PRES   REMARKS
COLUMBIA       CLEAR     31  18  58 S10       30.09F WCI  22
6HR MIN TEMP:  29; 6HR MAX TEMP:  37;

JEFFERSON CITY CLOUDY    35  17  47 S6        30.13F
6HR MIN TEMP:  34; 6HR MAX TEMP:  42; 6HR PCP: TRACE;

ROLLA          CLEAR     30  13  49 S12       30.13F WCI  20
6HR MIN TEMP:  30; 6HR MAX TEMP:  37;

SEDALIA        CLOUDY    36  15  42 SW18      30.09S WCI  26
6HR MIN TEMP:  35; 6HR MAX TEMP:  38;

WHITEMAN AFB   CLEAR     33  17  51 SW17      30.03F WCI  22
WARRENSBURG    PTCLDY    32  19  59 S10       30.07F WCI  24
OSAGE BEACH    CLOUDY    33  15  47 SW9       30.14F WCI  25

$$
MOZ051-052-059>065-190700-
...EAST CENTRAL MISSOURI...

CITY           SKY/WX    TMP DP  RH WIND       PRES   REMARKS
ST LOUIS INTL  CLOUDY    34  14  43 S7        30.15R WCI  28
6HR MIN TEMP:  34; 6HR MAX TEMP:  41;

SPIRIT OF STL  CLEAR     35  13  40 SW9       30.14S WCI  28
6HR MIN TEMP:  35; 6HR MAX TEMP:  41;

ST CHARLES     CLOUDY    29  16  58 S7        30.14F WCI  22
6HR MIN TEMP:  26; 6HR MAX TEMP:  37;


$$
MOZ072>076-082>087-097>100-106>115-190700-
...SOUTH CENTRAL AND SOUTHEAST MISSOURI...

CITY           SKY/WX    TMP DP  RH WIND       PRES   REMARKS
CAPE GIRARDEAU FAIR      23  16  74 S10       30.26F WCI  12
6HR MIN TEMP:  23; 6HR MAX TEMP:  26;

FARMINGTON     CLEAR     26  18  71 S9        30.18F WCI  17
6HR MIN TEMP:  26; 6HR MAX TEMP:  36;

POPLAR BLUFF   FAIR      24  17  74 SW7       30.27F WCI  16
6HR MIN TEMP:  22; 6HR MAX TEMP:  29;

WEST PLAINS    CLOUDY    28  11  48 SW6       30.20F WCI  22
6HR MIN TEMP:  26; 6HR MAX TEMP:  34;


$$



USA.gov is the U.S. government's official web portal to all federal, state and local government web resources and services.